Location: Bavegemberg
(50.9500°N, 3.8833°E)
Time: 12:04:43
(UTC+00:00)

NOSS 3-4 (A) - Pass Details

Date: 23 May 2024
Orbit: 801 x 1410 km, 63.4° (Epoch: 04 June)

Event Time Altitude Azimuth Distance (km) Brightness Sun altitude
Rises 00:32:49 0° 314° (NW) 3,749 7.0 -17.5°
Reaches altitude 10° 00:35:20 10° 309° (NW) 2,877 6.3 -17.4°
Maximum altitude 00:41:56 51° 237° (WSW) 1,445 4.1 -17.2°
Enters shadow 00:47:12 20° 171° (S) 2,539 5.1 -17.0°
